Regional Weather Roundup
Issued by NWS Boston, MA

Home | Current Version | Previous Version | Text Only | Print | Product List | Glossary On
Versions: 1 2 3 4 5 6 7 8 9 10 11 12 13 14 15 16 17 18 19 20 21 22 23 24 25 26 27 28
000
ASUS41 KBOX 181310
RWRBOX

REGIONAL WEATHER ROUNDUP
NATIONAL WEATHER SERVICE TAUNTON MA
900 AM EDT FRI AUG 18 2017

NOTE:  "FAIR" INDICATES FEW OR NO CLOUDS BELOW 12,000 FEET WITH NO
SIGNIFICANT WEATHER AND/OR OBSTRUCTIONS TO VISIBILITY.

MAZALL-181400-
EASTERN MASSACHUSETTS

CITY           SKY/WX    TMP DP  RH WIND       PRES   REMARKS
BOSTON         LGT RAIN  70  65  84 S9        29.95F
BEVERLY        CLOUDY    69  63  81 SE7       29.95F
LAWRENCE       CLOUDY    70  60  70 SE3       29.96F
BEDFORD        CLOUDY    71  63  75 SE9       29.92F
BLUE HILL        N/A     68  65  90 S13       29.95F
NORWOOD        CLOUDY    71  67  87 SE6       29.94F
MARSHFIELD     CLOUDY    73  66  78 S6        29.96F
PLYMOUTH       CLOUDY    72  67  84 S7        29.97F
TAUNTON        CLOUDY    73  68  84 SE7       29.95F
NEW BEDFORD    CLOUDY    72  69  90 S9        29.96F
$$

MAZALL-181400-
CAPE COD AND THE ISLANDS

CITY           SKY/WX    TMP DP  RH WIND       PRES   REMARKS
FALMOUTH       CLOUDY    72  68  88 S8        29.99F
HYANNIS        CLOUDY    73  69  87 S9        29.97S
CHATHAM        CLOUDY    69  65  86 VRB6      30.00F
PROVINCETOWN   MOSUNNY   71  67  87 S10G16    29.99S
NANTUCKET      PTSUNNY   68  68 100 S12       30.00S
MARTHAS VNYRD  PTSUNNY   72  69  90 S14       29.98F
$$

MAZALL-181400-
CENTRAL AND WESTERN MASSACHUSETTS

CITY           SKY/WX    TMP DP  RH WIND       PRES   REMARKS
WORCESTER      CLOUDY    68  64  87 S14       29.94F
FITCHBURG      CLOUDY    69  63  81 SE5       29.93F
ORANGE         LGT RAIN  65  65 100 CALM      29.91F FOG
SPRINGFIELD    CLOUDY    72  67  86 S13       29.88F
WESTFIELD      LGT RAIN  69  68  96 S3        29.89F
NORTH ADAMS    CLOUDY    69  66  90 E5        29.88F
PITTSFIELD     LGT RAIN  69  66  90 S9        29.89F
$$

RIZALL-181400-
RHODE ISLAND

CITY           SKY/WX    TMP DP  RH WIND       PRES   REMARKS
PROVIDENCE     CLOUDY    73  71  93 S10       29.95F
NEWPORT        CLOUDY    72  72 100 S9        29.95F FOG
BLOCK ISLAND   CLOUDY    73  71  93 S12       29.95F FOG
WESTERLY       CLOUDY    73  72  96 SE8       29.95F FOG
$$

CTZALL-181400-
CONNECTICUT

CITY           SKY/WX    TMP DP  RH WIND       PRES   REMARKS
BRADLEY INTL   LGT RAIN  74  71  91 S10       29.89F
HARTFORD       PTSUNNY   76  71  85 S9        29.89F
BRIDGEPORT     RAIN      74  71  91 S8        29.90F FOG
DANBURY        CLOUDY    74  71  91 S7        29.91F
GROTON         CLOUDY    73  71  93 SE9       29.93S FOG
NEW HAVEN      CLOUDY    75  71  87 S9        29.92S
CHESTER        NOT AVBL
MERIDEN        CLOUDY    75  70  84 SE9       29.91S
WILLIMANTIC    CLOUDY    73  71  93 S8        29.92F
OXFORD         CLOUDY    72  70  93 S12       29.93S
$$

MEZ002-015-021-024-NHZ003-005-008-011-012-014-VTZ005-008-181400-
NORTHERN NEW ENGLAND

CITY           SKY/WX    TMP DP  RH WIND       PRES   REMARKS
PORTLAND ME    CLOUDY    64  54  69 SE10      29.97S
BANGOR ME      CLOUDY    65  52  62 CALM      29.99F
CONCORD NH     LGT RAIN  63  59  87 E5        29.94F FOG
MANCHESTER NH  CLOUDY    67  60  78 SE8       29.92F
NASHUA NH      CLOUDY    67  64  90 SE6       29.93F
PORTSMOUTH NH  CLOUDY    67  58  73 SE6       29.95F
JAFFREY NH     LGT RAIN  66  65  96 VRB5      29.93F
KEENE NH         N/A    N/A N/A N/A MISG        N/A
BURLINGTON VT  LGT RAIN  65  63  93 SE9       29.82F FOG
MT. WASHINGTON RAIN      46  46 100 S30G41      N/A  VSB 0
$$

NYZ052-076-181400-
EASTERN NEW YORK

CITY           SKY/WX    TMP DP  RH WIND       PRES   REMARKS
ALBANY         CLOUDY    73  69  87 S9G21     29.83S
NEW YORK CITY  TSTM      73  73 100 SE6       29.86F VSB 1/2
$$

ANZALL-181400-
MARINE OBSERVATIONS

STATION/POSITION TIME  TEMP    WIND        PRES    VSBY  WAVE
                       AIR SEA DIR/SP/G                  HT/PER
                 (UTC) (F)     (DEG/KT/KT) (MB)    (MI)  (FT/S)
BOSTON BUOY      1250   67 68  150/  8/ 10 1014.3F         1/ 8
BUZZARDS BAY     1200   68     160/ 12/ 12 1015.4R
NANTUCKET SOUND  1150   70 71  170/ 12/ 14 1015.5          1/ 3
MASS BAY-STELLWA 1204   68 67  180/ 10/ 12 1014.1R         1/ 8
ISLE OF SHOALS   1200   65     200/  9/ 10 1014.5R
S OF BLOCK IS    NOT AVBL
$$

......................KEY.........................
  SKY/WX - SKY CONDITION/PRESENT WEATHER
  TMP    - TEMPERATURE IN FAHRENHEIT
  DWPT   - DEWPOINT IN FAHRENHEIT
  RH     - RELATIVE HUMIDITY IN PERCENT
  WIND   - DIRECTION AND SPEED IN MPH
  PRES   - MEAN SEA LEVEL PRESSURE IN INCHES OF HG
  WCI    - WIND CHILL INDEX
  VSB    - VISIBILITY IN MILES
  HX     - HEAT INDEX
  TC     - TEMPERATURE IN CELSIUS
  VRB    - VARIABLE WIND DIRECTION
  N/A    - NOT AVAILABLE




USA.gov is the U.S. government's official web portal to all federal, state and local government web resources and services.